Regional Weather Roundup
Issued by NWS

Home | Current Version | Previous Version | Text Only | Print | Product List | Glossary Off
Versions: 1 2 3 4 5 6 7 8 9 10 11 12 13 14 15 16 17 18 19 20 21 22 23 24 25 26 27 28 29 30 31 32 33 34 35 36 37 38 39 40 41 42 43 44 45 46 47 48 49 50

000
ASUS45 KABQ 270010
RWRNM
NEW MEXICO REGIONAL WEATHER ROUNDUP
NATIONAL WEATHER SERVICE ALBUQUERQUE NM
600 PM MDT TUE JUL 26 2016

NOTE: "FAIR" MEANS FEW OR NO CLOUDS BELOW 12,000 FEET AGL WITH NO
       SIGNIFICANT WEATHER OR OBSTRUCTIONS TO VISION.

      THIS PRODUCT IS RELEASED AS TWO VERSIONS.  ONE VERSION NEAR
      THE TOP OF THE HOUR CONTAINING PRELIMINARY DATA FROM ALBUQUERQUE
      AND OTHER STATIONS.  A FINAL VERSION WITH ADDITIONAL DATA IS
      ISSUED ABOUT 10 MINUTES AFTER THE HOUR.

NMZ501-503-504-510>518-270100-
NORTHWEST PLATEAU/NORTHCENTRAL MOUNTAINS

CITY           SKY/WX    TMP DP  RH WIND       PRES   REMARKS
FARMINGTON     FAIR      90  40  17 MISG      30.11R
6HR MIN TEMP:  82; 6HR MAX TEMP:  95;

LOS ALAMOS     PTSUNNY   80  40  24 W9        30.27F
SANTA FE       FAIR      83  48  29 E8        30.19S
6HR MIN TEMP:  81; 6HR MAX TEMP:  90;

TAOS           PTSUNNY   77  39  25 E6        30.30F
ANGEL FIRE     CLOUDY    62  53  73 S8        30.42S

$$
NMZ402-403-502-505>509-270100-
WESTCENTRAL MOUNTAINS/SOUTHWEST MOUNTAINS

CITY           SKY/WX    TMP DP  RH WIND       PRES   REMARKS
GALLUP         FAIR      86  43  22 N9        30.21F
6HR MIN TEMP:  78; 6HR MAX TEMP:  87;

GRANTS         FAIR      84  46  26 N5        30.23F
SILVER CITY    CLOUDY    87  51  28 N10       30.13R

$$
NMZ407-409-411-412-270100-
SOUTHERN DESERTS

CITY           SKY/WX    TMP DP  RH WIND       PRES   REMARKS
LORDSBURG      FAIR      91  52  25 W9        29.99S
DEMING         NOT AVBL
LAS CRUCES     FAIR      92  48  21 CALM      30.03S
HOLLOMAN AFB   FAIR      95  53  24 W2        29.97F
ALAMOGORDO     FAIR      93  50  22 N6        30.00F
T OR C         FAIR      88  51  28 NW9       30.06F
6HR MIN TEMP:  85; 6HR MAX TEMP:  93;


$$
NMZ519>523-270100-
CENTRAL VALLEYS/CENTRAL HIGHLANDS

CITY           SKY/WX    TMP DP  RH WIND       PRES   REMARKS
ALBUQUERQUE    PTSUNNY   92  49  22 NW7       30.08F
6HR MIN TEMP:  82; 6HR MAX TEMP:  93;

DOUBLE EAGLE   PTSUNNY   88  52  29 N18G24    30.14S
MORIARTY ARPT  FAIR      80  47  31 W18G24    30.17S
6HR MIN TEMP:  80; 6HR MAX TEMP:  90;

CLINES CORNERS FAIR      74  51  44 NE13      30.25R
6HR MIN TEMP:  74; 6HR MAX TEMP:  84;

BELEN          PTSUNNY   88  47  24 W10G18    30.08S
6HR MIN TEMP:  82; 6HR MAX TEMP:  94;

SOCORRO        FAIR      91  50  24 SW10G16   30.05F
6HR MIN TEMP:  86; 6HR MAX TEMP:  92;


$$
NMZ524>526-539-540-270100-
SOUTHCENTRAL MOUNTAINS

CITY           SKY/WX    TMP DP  RH WIND       PRES   REMARKS
RUIDOSO          N/A     77  50  38 NE8       30.26S

$$
NMZ527>531-270100-
NORTHEAST HIGHLANDS/NORTHEAST PLAINS

CITY           SKY/WX    TMP DP  RH WIND       PRES   REMARKS
LAS VEGAS      PTSUNNY   67  58  72 NE13      30.28R
6HR MIN TEMP:  67; 6HR MAX TEMP:  89; 6HR PCP:  0.07;

RATON          FAIR     N/A N/A N/A NE18G30   30.21R
6HR MIN TEMP:  78; 6HR MAX TEMP:  81;

CLAYTON        FAIR      89  49  25 S8        30.11S
6HR MIN TEMP:  85; 6HR MAX TEMP:  92;


$$
NMZ532>537-270100-
EASTCENTRAL PLAINS

CITY           SKY/WX    TMP DP  RH WIND       PRES   REMARKS
TUCUMCARI      FAIR      95  51  22 S8        30.01F
6HR MIN TEMP:  86; 6HR MAX TEMP:  96;

CANNON AFB     FAIR      85  59  40 S12       30.07S
6HR MIN TEMP:  85; 6HR MAX TEMP:  90;

CLOVIS AIRPORT FAIR      91  55  29 SE12      30.06F

$$
NMZ028-029-538-270100-
SOUTHEAST PLAINS

CITY           SKY/WX    TMP DP  RH WIND       PRES   REMARKS
ROSWELL        FAIR      89  59  36 W8        30.01R
6HR MIN TEMP:  85; 6HR MAX TEMP:  93;

ARTESIA        FAIR      86  59  39 S10       30.02R
CARLSBAD       FAIR      79  70  74 S5        30.00S
6HR MIN TEMP:  73; 6HR MAX TEMP:  96; 6HR PCP:  0.22;

HOBBS          SUNNY     84  63  48 S10       30.03F


$$




USA.gov is the U.S. government's official web portal to all federal, state and local government web resources and services.